Weather Roundup
Issued by NWS Springfield, MO

Home | Current Version | Previous Version | Text Only | Print | Product List | Glossary On
Versions: 1 2 3 4 5 6 7 8 9 10 11 12 13 14 15 16 17 18 19 20 21 22 23 24 25 26 27 28 29 30 31 32 33 34 35 36 37 38 39 40 41 42 43 44 45 46 47 48 49 50
000
NZUS99 KSGF 060407
HRRSGF

HOURLY WEATHER
NATIONAL WEATHER SERVICE SPRINGFIELD MO
1100 PM CDT THU MAY 05 2016

......SGF CWA......

CITY           SKY/WX    TMP DP  RH WIND       PRES   REMARKS
SPRINGFIELD    CLEAR     51  38  60 CALM      30.05R
JOPLIN         CLEAR     53  45  74 CALM      30.06R
WEST PLAINS    CLEAR     49  37  63 CALM      30.06R
ROLLA          PTCLDY    49  39  68 CALM      30.04R
OSAGE BEACH    CLEAR     46  32  57 CALM      30.05S

......SURROUNDING SGF CWA......

CITY           SKY/WX    TMP DP  RH WIND       PRES   REMARKS
CHANUTE        CLEAR     55  46  71 E3        30.06R
PARSONS        CLEAR     55  51  86 CALM      30.07R
COFFEYVILLE    CLEAR     56  49  77 CALM      30.06R
EMPORIA        CLEAR     59  47  64 S6        30.06R
GROVE OK       CLEAR     55  52  88 CALM      30.07R
ROGERS AR      CLEAR     57  42  57 CALM      30.07R
SILOAM SPRINGS CLEAR     54  39  58 CALM      30.07R
HARRISON AR    CLEAR     53  35  50 NW3       30.06R
NEAR YELLVILLE CLEAR    N/A N/A N/A CALM      30.02R

......KANSAS AND MISSOURI......

CITY           SKY/WX    TMP DP  RH WIND       PRES   REMARKS
KANSAS CTY INT CLEAR     60  38  43 SE5       30.05R
DOWNTOWN KC    CLEAR     61  43  51 CALM      30.04R
COLUMBIA       CLOUDY    56  39  53 NE5       30.05R
SEDALIA        CLEAR     59  34  39 CALM      30.06S
ST JOSEPH      CLEAR     55  48  77 CALM      30.05R
ST LOUIS       CLEAR     56  43  61 W3        30.03S
SPIRIT OF STL  CLEAR     48  46  93 W5        30.03S
KIRKSVILLE     CLEAR     45  41  86 CALM      30.04S
WICHITA        CLEAR     59  47  64 CALM      30.06R
TOPEKA         CLEAR     58  48  69 CALM      30.04S
OLATHE         CLEAR     56  46  69 CALM      30.06R

......TENNESSEE......

CITY           SKY/WX    TMP DP  RH WIND       PRES   REMARKS
MEMPHIS        CLEAR     60  43  53 NE9       30.02R
NASHVILLE      CLEAR     52  43  71 NW6       29.98S

......ARKANSAS.......

CITY           SKY/WX    TMP DP  RH WIND       PRES   REMARKS
FAYETTEVILLE   CLEAR     49  46  90 S3        30.07R
FT SMITH       CLEAR     65  46  50 N3        30.04R
LITTLE ROCK    CLEAR     61  41  47 CALM      30.02R

......OKLAHOMA.......

CITY           SKY/WX    TMP DP  RH WIND       PRES   REMARKS
TULSA          PTCLDY    65  48  54 CALM      30.04R
PONCA CITY     CLEAR     57  50  77 CALM      30.06R
MCALESTER      PTCLDY    54  50  86 CALM      30.06R
OKLAHOMA CITY  PTCLDY    62  47  57 CALM      30.06R

......IOWA............

CITY           SKY/WX    TMP DP  RH WIND       PRES   REMARKS
DES MOINES     CLEAR     58  38  47 S7        30.01R
QUAD CITIES    CLEAR     47  41  80 CALM      29.99S

......ILLINOIS........

CITY           SKY/WX    TMP DP  RH WIND       PRES   REMARKS
QUINCY         CLEAR     52  42  69 SW5       30.03R
CHICAGO        CLEAR     48  38  68 CALM      29.99R




USA.gov is the U.S. government's official web portal to all federal, state and local government web resources and services.